Куткашен

Azerbaijan     40˚58′58″N   47˚49′58″E
temp.,
°C
wind,
m/s
gust,
m/s
humid.,
%
clouds,
%
prec.,
mm/h
press.,
hPa
HPBL,
m
1 december, tue
tue101:00+2˚wsw0196100 2.1 1025121
04:00+2˚w1194100 2.8 1025108
07:00+2˚nnw019299 0.1 102484
10:00+2˚wsw1191100 0.2 1024140
13:00+4˚wsw118296 0.1 1023395
16:00+5˚wsw117995 0.1 1022481
19:00+4˚w1181100 0.0 102445
22:00+2˚nne1175100 0.0 102524
2 december, wed
wed201:00+1˚nne117362 0.0 102522
04:00+1˚nne116733 0.0 102522
07:00+1˚ne11620 0.0 102622
10:00+4˚sse11660 0.0 1027113
13:00+6˚s22700 0.0 1026527
16:00+6˚s11729 0.0 1025504
19:00+2˚ene117915 0.0 102722
22:00+2˚ne117612 0.0 102822
3 december, thu
thu301:00+2˚ne017770 0.0 102922
04:00+3˚n117583 0.0 102922
07:00+2˚nne117289 0.0 102922
10:00+4˚wsw017089 0.0 1030207
13:00+4˚sw228288 0.0 1029310
16:00+4˚wsw228589 0.1 1028270
19:00+3˚wsw119391 0.0 103064
22:00+3˚w019196 0.1 103049
4 december, fri
fri401:00+3˚wsw1190100 0.1 103049
04:00+3˚w119099 0.1 102957
07:00+2˚w118899 0.0 102860
10:00+3˚ssw118697 0.0 1029163
13:00+4˚sw119198 0.0 1027241
16:00+5˚sw118194 0.1 1026316
19:00+3˚nnw018996 0.1 102761
22:00+3˚ne008693 0.1 102722
5 december, sat
sat501:00+3˚nnw118096 0.0 102622
04:00+1˚nne018387 0.0 102622
07:00+1˚ne128149 0.0 102522
10:00+4˚se117236 0.0 1026235
13:00+6˚s226526 0.0 1024595
16:00+6˚ssw116824 0.1 1024560
19:00+3˚nne117435 0.0 102523
22:00+3˚ne117064 0.1 102623